Simultaneous Nadir Overpasses (SNOs) Predictions

Prediction of SNOs between AQUA and NPP Satellite Orbit:

Table of predicted SNOs for the next 14.0 days since TLE Epoch: 9/28/2019
Index Date (AQUA) Time (AQUA) Lat,Lon (AQUA) SZA (AQUA ) Date (NPP) Time (NPP) Lat,Lon (NPP) SZA (NPP ) Distance(km) Time Diff (sec)
1 09/30/2019 05:32:29 -74.91, 152.90 79.51 09/30/2019 05:31:36 -74.91, 152.84 79.45 1.76 53
2 09/30/2019 06:21:28 76.22, -35.71 99.08 09/30/2019 06:21:52 76.22, -35.74 99.07 0.73 24
3 10/02/2019 21:48:44 -75.65, -89.21 79.34 10/02/2019 21:48:15 -75.65, -89.17 79.33 1.12 29
4 10/02/2019 22:37:53 76.44, 80.89 99.80 10/02/2019 22:38:42 76.43, 80.80 99.78 2.71 49
5 10/05/2019 13:21:26 56.64,-163.91 119.66 10/05/2019 13:20:14 56.83,-165.24 120.16 84.03 72
6 10/05/2019 14:05:10 -75.83, 27.20 78.58 10/05/2019 14:05:06 -75.83, 27.15 78.56 1.24 4
7 10/05/2019 14:54:10 77.03,-161.13 100.09 10/05/2019 14:55:23 77.04,-161.07 100.01 1.71 73
8 10/08/2019 05:32:24 75.15, -26.48 103.10 10/08/2019 05:31:28 75.15, -26.47 103.15 0.29 56
9 10/08/2019 06:21:25 -76.48, 145.16 78.34 10/08/2019 06:21:45 -76.50, 145.25 78.39 2.80 20
10 10/10/2019 21:48:46 75.52, 90.41 103.66 10/10/2019 21:48:15 75.51, 90.38 103.70 0.81 31




NCC Satellite Simultaneous Nadir Overpasses (SNOs) Prediction Service
